RH
24 24 28 21 24 24 30 36 38 31 28 35 34 31 26 23 20 20 14 11 11 12 12 14 16 18 21 25 28 28 37 37 38 37 40 35 34 35 35 35 40 38 40 43
27 31 22 21 23 29 34 42 46 31 30 34 34 35 29 25 24 23 22 17 14 12 11 14 16 18 22 22 30 38 38 37 38 40 43 44 41 38 40 41 41 42 40 43
30 26 22 24 26 34 36 42 41 45 37 35 40 40 30 22 17 18 19 20 19 18 12 13 14 17 23 25 37 39 41 42 42 44 45 46 47 51 48 46 44 42 40 42
30 27 28 29 30 34 51 33 36 44 59 78 39 78 28 21 16 16 18 20 20 19 19 13 14 16 21 30 43 43 44 44 41 47 46 46 49 48 44 44 44 43 38 40
41 34 34 38 35 34 42 38 43 46 64 79 53 88 41 23 21 18 21 20 21 19 18 13 14 17 21 38 49 49 46 45 47 48 48 49 48 45 44 44 42 41 41 38
37 28 36 38 37 37 35 48 46 44 50 100 75 61 39 27 23 15 19 20 19 18 16 15 16 19 33 46 50 52 49 47 45 49 47 47 50 49 48 46 48 45 40 40
51 40 40 38 50 41 50 72 95 98 99 74 49 52 57 31 25 17 16 20 21 21 19 19 24 34 38 50 52 49 47 48 45 46 48 46 45 45 48 50 48 45 43 43
48 43 48 38 68 95 54 88 90 93 58 47 36 73 47 24 20 15 16 19 22 22 22 24 30 34 41 46 49 45 44 45 46 45 48 50 46 47 46 47 45 43 43 44
50 39 41 40 38 60 64 75 47 99 74 76 44 34 33 26 21 16 21 29 32 29 31 32 34 39 40 42 44 45 44 43 44 47 49 50 50 49 48 45 43 43 42 40
57 76 48 44 44 50 78 57 84 96 93 78 41 52 46 38 25 20 23 28 29 30 32 34 36 38 38 39 44 48 44 45 46 48 48 47 48 47 46 44 44 44 42 40
86 86 54 52 64 96 68 100 78 88 73 84 68 51 78 63 49 54 28 26 28 31 32 30 31 32 36 40 46 47 47 46 48 48 48 51 53 50 47 47 44 44 46 40
66 100 89 49 82 80 76 100 100 81 91 89 94 77 53 97 100 100 93 83 34 38 33 30 32 33 35 37 42 45 46 47 48 44 48 52 52 53 50 50 48 47 47 43
94 94 83 70 82 67 95 98 96 87 86 93 95 83 69 86 99 100 98 87 92 60 51 38 36 39 41 39 42 40 41 44 45 44 50 52 50 51 51 51 50 49 49 48
58 85 93 71 74 74 95 96 91 87 99 83 84 83 84 94 100 100 94 100 100 100 99 82 76 52 44 42 40 38 41 44 49 50 54 55 53 51 50 50 51 51 50 51
65 89 58 55 56 69 84 91 100 99 88 97 82 85 82 92 100 100 98 100 100 100 100 88 86 56 45 48 47 45 46 45 47 49 55 56 54 51 50 54 54 54 53 51
63 86 88 93 74 86 94 86 86 86 91 93 91 91 82 100 100 100 100 96 98 100 100 100 93 62 61 59 63 62 59 52 47 56 59 57 57 56 56 56 57 57 57 56
91 93 96 89 72 90 95 89 84 97 100 96 93 99 100 91 94 100 98 100 100 100 100 100 100 100 88 77 70 78 64 59 64 68 64 60 59 60 59 59 59 59 58 56
93 94 96 93 89 92 94 82 83 93 91 96 92 92 95 96 100 100 100 100 100 100 100 100 100 99 78 72 70 67 68 73 72 71 67 63 63 63 60 60 61 58 56 57
70 88 96 96 82 55 50 59 74 88 86 76 88 97 100 98 94 94 92 100 100 100 100 100 97 92 91 84 80 84 78 72 69 66 64 62 62 64 62 65 64 59 60 61
83 95 96 95 95 82 66 53 49 57 81 80 99 97 98 99 96 94 100 100 100 100 99 93 92 91 92 85 77 78 75 74 72 66 67 64 64 62 66 66 67 64 61 62
85 91 90 86 92 63 49 52 55 88 95 86 92 97 99 99 100 100 100 100 100 100 94 97 92 88 87 86 85 81 78 78 71 70 66 66 66 70 68 68 65 64 65 67
83 82 71 60 77 76 59 65 77 88 73 90 97 100 96 98 98 96 99 100 100 94 89 85 86 84 83 87 87 88 89 78 71 70 67 69 68 64 66 72 68 64 70 80
80 69 61 51 44 52 94 97 92 79 96 99 96 89 98 92 88 84 90 98 96 93 86 84 87 87 84 86 91 89 82 76 75 71 77 74 68 67 66 70 74 75 72 78
49 53 64 60 42 91 82 52 50 64 77 96 94 91 80 92 84 84 80 88 88 85 86 86 88 89 86 83 85 88 82 74 76 78 80 76 77 73 72 68 69 78 82 82
54 62 57 51 58 76 63 43 37 60 80 78 62 65 76 87 81 75 77 78 84 87 85 87 86 86 86 85 85 85 85 83 84 82 84 82 76 80 80 76 77 83 79 81
57 74 80 69 61 73 51 30 49 64 58 57 74 77 67 76 84 77 78 76 82 86 84 85 84 86 85 86 87 86 86 87 89 86 78 79 78 82 81 84 83 70 68 74
Wind_Speed
3 2 5 6 6 5 6 10 15 16 7 7 13 22 23 18 16 15 15 16 16 17 17 15 15 13 11 9 8 6 4 2 1 2 3 2 2 1 2 1 3 4 4 4
5 3 4 1 2 4 8 13 13 10 4 8 17 27 25 16 16 16 17 17 16 16 17 17 16 14 12 10 8 6 4 3 2 2 2 1 3 3 3 3 3 3 4 4
3 5 2 1 2 7 10 8 10 10 17 14 13 15 6 4 3 2 6 12 18 20 18 18 17 15 12 11 9 6 4 3 1 3 1 2 2 3 3 4 3 2 4 5
3 3 0 3 2 3 6 4 7 13 11 6 8 7 5 3 3 4 6 10 13 14 17 17 17 16 13 11 8 6 4 2 1 2 2 3 3 4 3 3 3 4 5 6
3 0 1 3 3 2 5 7 10 7 5 7 4 2 6 1 1 2 1 5 8 11 15 17 15 14 13 10 9 7 5 4 2 1 2 3 4 4 3 3 5 6 5 5
4 2 2 5 3 3 11 11 9 3 2 3 1 4 5 6 4 3 2 5 8 10 9 10 11 12 10 8 8 6 5 3 2 1 2 3 4 5 4 5 6 5 5 4
5 3 3 2 4 4 6 6 4 3 2 3 6 6 10 5 5 6 1 5 8 9 11 11 12 11 11 9 8 6 5 4 3 2 3 3 4 5 6 6 6 7 6 5
3 3 0 3 3 1 4 0 2 6 6 10 7 7 1 4 3 2 3 5 6 8 9 10 11 9 8 8 7 6 5 3 3 2 3 3 4 4 4 6 6 6 6 6
4 2 4 5 1 2 2 1 3 4 3 4 6 5 9 2 3 5 7 7 8 8 8 9 8 7 7 7 7 4 3 3 2 2 3 5 5 6 7 9 8 6 8 7
2 6 3 4 2 3 1 2 3 2 5 7 8 6 10 1 4 5 8 8 8 8 8 8 8 7 5 4 4 4 2 4 4 4 4 5 6 7 8 8 9 9 10 9
2 1 4 4 6 5 4 2 3 2 4 5 9 2 1 1 1 5 4 5 7 9 10 9 8 6 4 3 3 2 3 4 5 5 6 7 7 8 8 8 9 9 10 10
3 3 5 8 4 1 2 4 6 5 4 6 6 11 6 3 2 1 6 5 6 7 9 8 5 4 3 3 3 3 3 4 5 6 6 7 8 8 9 9 10 10 10 10
6 3 5 4 3 1 5 5 4 1 2 13 11 9 2 2 3 1 4 6 6 10 11 9 5 4 7 5 4 5 4 4 5 6 7 8 9 9 10 10 10 10 10 10
3 4 8 12 13 10 6 7 8 8 6 16 15 25 13 2 4 6 6 6 6 4 3 5 5 4 4 4 5 6 6 6 6 6 7 9 9 10 10 10 10 11 11 12
3 7 15 21 21 17 17 15 15 14 20 16 23 18 21 13 8 3 4 4 5 6 6 4 3 4 5 6 6 6 7 8 8 9 8 10 10 11 11 11 11 11 12 12
4 6 5 10 16 17 18 16 20 24 20 21 23 24 16 3 1 4 4 4 5 4 4 4 3 6 7 7 7 7 8 9 9 9 10 11 11 11 11 11 11 11 12 12
7 4 4 10 4 8 10 20 19 4 4 5 8 2 2 5 7 5 5 2 2 3 2 1 3 4 5 7 7 7 9 10 10 11 11 12 12 12 11 11 11 12 13 13
8 5 3 7 3 13 3 5 4 2 3 2 8 5 3 2 7 8 3 5 5 4 3 4 4 3 6 7 8 9 9 10 10 11 12 11 11 12 12 12 12 13 12 13
9 4 3 5 9 16 12 7 5 6 3 6 6 4 6 6 8 3 3 1 2 4 4 4 4 5 5 7 8 8 10 11 11 12 12 11 11 12 12 13 13 13 13 13
1 3 2 1 5 7 5 4 2 3 3 4 6 9 12 10 8 4 5 2 6 6 5 6 6 6 6 7 8 10 11 12 12 12 12 12 12 14 14 14 14 12 12 13
3 3 7 10 8 6 6 6 5 4 5 12 10 13 13 5 4 4 5 6 4 5 6 5 6 7 7 7 8 12 12 13 13 13 13 13 12 12 13 14 12 12 13 13
4 4 5 6 6 10 8 4 4 7 10 12 9 10 9 7 6 8 7 7 6 7 6 7 9 11 10 7 9 12 13 13 14 14 15 13 13 12 11 13 12 12 12 12
6 6 6 3 8 9 5 4 4 6 6 5 6 4 5 8 10 10 9 7 6 6 8 9 9 12 12 9 6 12 13 14 13 15 13 13 13 12 11 12 12 10 10 10
4 2 5 9 1 9 7 7 6 1 2 3 5 7 9 9 11 12 11 9 6 8 9 9 10 12 13 9 9 10 13 14 13 14 13 12 12 13 11 9 9 8 8 8
6 3 8 13 5 6 5 6 5 6 3 6 9 9 10 9 11 11 10 8 8 9 9 9 10 11 13 12 12 11 11 12 12 12 12 11 9 10 9 9 8 8 10 11
4 3 2 3 5 4 2 5 7 8 8 9 8 10 8 7 8 10 9 9 10 11 10 10 10 11 13 13 13 12 11 11 12 12 9 9 8 7 8 8 9 16 20 22
Wind_Direction
32 59 28 18 25 345 319 302 297 302 54 313 267 281 280 272 220 224 227 201 194 196 185 179 172 166 160 161 167 170 169 115 336 313 311 295 301 322 258 255 337 309 316 327
218 67 51 17 329 305 299 298 305 308 56 315 298 293 288 282 252 237 218 227 198 194 189 179 176 171 171 166 164 156 131 100 30 332 353 327 341 332 325 335 285 310 301 321
14 70 104 312 294 325 312 295 313 304 322 276 304 279 172 94 113 143 247 246 232 197 195 182 182 176 176 169 168 159 139 89 36 335 302 252 225 218 227 211 240 285 297 305
47 110 283 273 292 335 298 24 302 307 331 313 10 295 336 88 175 205 202 216 222 210 214 185 187 178 174 173 156 156 144 144 176 321 312 293 287 293 316 298 301 288 289 302
72 258 272 270 26 349 319 320 297 308 285 328 145 271 271 49 291 175 8 183 196 194 191 188 185 174 177 153 170 172 172 169 185 290 297 293 292 296 295 295 295 290 295 310
68 67 352 358 302 252 313 297 243 290 272 274 149 354 294 18 359 8 97 166 160 170 174 169 181 170 158 166 171 175 179 191 204 284 304 300 292 291 300 302 303 301 312 309
166 140 104 351 294 191 300 321 318 282 237 299 168 270 267 9 17 351 19 170 165 173 176 173 173 178 175 179 181 183 187 213 223 268 303 293 284 282 285 292 297 302 300 305
308 227 39 11 58 272 17 101 324 296 317 313 241 245 305 74 15 18 103 131 153 175 181 181 188 191 187 188 187 190 204 219 228 292 309 289 268 272 280 282 282 281 288 296
308 231 128 55 43 332 66 302 12 287 210 263 262 274 124 109 114 132 150 165 172 176 184 191 186 195 193 193 197 220 237 250 255 285 296 278 266 266 274 285 279 280 285 281
72 292 78 107 171 92 62 37 219 185 294 287 283 266 277 15 121 172 187 197 185 190 194 191 195 193 195 205 199 212 291 324 315 307 293 292 281 274 279 279 275 275 279 281
102 315 124 176 191 174 153 199 204 285 274 287 299 277 70 20 300 303 286 198 212 210 216 207 197 180 186 214 230 276 320 318 315 307 298 292 277 277 279 273 275 275 278 277
71 174 263 281 81 14 292 213 192 235 222 228 276 277 5 78 313 287 255 311 267 262 249 232 227 217 239 261 252 270 332 312 309 308 297 286 281 278 277 271 267 267 268 270
193 194 300 210 125 99 228 200 236 315 320 239 268 263 36 34 298 303 298 292 285 295 292 267 211 314 321 330 351 334 326 306 295 285 281 284 281 274 270 270 271 270 270 269
188 241 218 257 281 311 257 216 215 212 243 274 246 273 296 229 292 312 301 319 339 314 345 348 350 308 17 10 348 342 319 289 276 273 273 274 274 275 275 278 279 279 274 273
220 233 254 255 265 275 270 263 232 211 242 255 274 281 285 305 321 344 325 11 17 32 33 55 67 16 21 8 335 299 293 300 295 287 280 273 276 277 279 276 274 273 270 268
167 270 290 261 258 255 263 260 257 250 255 256 264 272 293 64 101 21 7 14 0 10 37 49 23 9 351 315 299 307 295 291 292 282 275 277 278 277 274 276 278 275 273 271
178 217 201 268 303 309 264 235 236 224 195 221 243 358 355 11 1 335 311 13 352 9 19 356 288 271 275 292 291 286 293 292 287 283 279 278 279 280 280 281 280 278 275 272
179 189 205 284 295 260 253 69 60 305 295 260 291 42 12 280 257 264 236 186 194 206 242 261 266 273 296 298 297 295 291 284 279 278 280 283 282 281 282 280 280 283 281 280
222 184 255 256 238 282 304 36 12 29 24 35 49 353 304 298 288 226 129 69 299 251 252 260 257 257 262 280 286 280 288 286 283 286 288 292 291 290 292 291 289 287 288 287
64 354 262 315 266 273 76 56 349 189 235 34 330 317 326 329 305 31 38 279 276 289 276 283 276 263 265 276 300 297 296 297 293 297 301 298 293 293 292 288 287 288 286 288
148 171 234 246 265 278 67 40 299 290 18 333 345 319 312 322 18 315 279 284 251 259 282 284 284 289 290 302 303 299 298 295 301 300 296 296 298 292 288 288 289 292 290 285
225 209 219 227 267 268 4 294 332 346 325 330 1 30 12 5 298 282 294 281 289 291 312 321 311 307 314 310 310 297 294 297 300 302 301 300 299 297 292 290 293 292 287 280
241 231 291 279 314 34 71 55 44 43 53 47 25 287 262 287 288 297 300 290 293 311 316 317 307 304 310 314 291 297 301 303 303 299 299 302 300 297 293 291 288 284 275 271
249 222 272 293 286 46 71 66 50 59 240 249 261 271 280 280 289 297 304 310 315 308 311 317 310 302 306 312 306 294 306 307 304 306 305 302 300 296 293 295 291 285 280 279
294 236 270 277 317 86 77 46 346 0 335 300 322 322 316 304 300 310 313 313 307 311 317 311 314 307 306 312 311 308 308 307 308 306 300 299 299 298 296 287 281 277 272 268
285 319 298 359 49 93 9 331 31 349 338 345 338 327 329 328 323 323 314 315 316 309 320 313 311 307 307 310 310 307 306 308 306 303 303 303 301 296 290 286 285 278 282 285